IRIDIUM 47 [+]

Last updated on Wed May 30 2018 00:19:59 GMT+0000 (Coordinated Universal Time)

1 25106U 97082C 18149.41713461 .00000091 00000-0 23169-4 0 9995 2 25106 86.4209 110.6039 0002369 89.9578 270.1892 14.38610206 69994
UTC large
Height (km)
Speed (km/s)
/
Latitude / Longitude
Inclination (degrees)
Orbital Period (minutes)
Azimuth
Elevation
Range (km)
Doppler Factor

Next 0 passes for location: London (51.5072 / 0.1276)

Sorry there are no passes over London.